Weather History for Roswell, NM

Change the Weather History Date:

Wednesday, March 12, 2014

  Actual Average Record
Temperature  
Mean Temperature 45 °F 52 °F  
Max Temperature 55 °F 67 °F 93 °F (1989)
Min Temperature 34 °F 36 °F 5 °F (1909)
Degree Days  
Heating Degree Days 20 13  
Month to date heating degree days 195 177  
Since 1 July heating degree days 2898 2884  
Cooling Degree Days 0 0  
Month to date cooling degree days 0 0  
Year to date cooling degree days 0 0  
Moisture  
Dew Point 18 °F    
Average Humidity 38    
Maximum Humidity 54    
Minimum Humidity 22    
Precipitation  
Precipitation 0.00 in 0.01 in 0.56 in (1909)
Month to date precipitation 0.05 0.19  
Year to date precipitation 0.07 0.99  
Sea Level Pressure  
Sea Level Pressure 30.28 in    
Wind  
Wind Speed 7 mph (NNE)    
Max Wind Speed 26 mph    
Max Gust Speed 32 mph    
Visibility 10 miles    
Events      
T = Trace of Precipitation, MM = Missing Value Source: NWS Daily Summary

Daily Weather History Graph

Daily Weather History Graph

Search for Another Location

Airport:

Trip Planner

Search our weather history database for the weather conditions in past years. The results will help you decide how hot, cold, wet, or windy it might be!

Date:

Astronomy

Mar. 12, 2014 Rise Set
Actual Time 7:12 AM MDT 7:03 PM MDT
Civil Twilight 6:47 AM MDT 7:28 PM MDT
Nautical Twilight 6:18 AM MDT 7:57 PM MDT
Astronomical Twilight 5:50 AM MDT 8:26 PM MDT
Moon 3:44 PM MDT (3/12) 4:36 AM MDT (3/12)
Length of Visible Light 12h 40m
Length of Day
11h 51m
Waxing Gibbous, 86% of the Moon is Illuminated
Mar 12
Waxing Gibbous
Mar 16
Full
Mar 23
Last Quarter
Mar 30
New
Apr 7
First Quarter

Hourly Weather History & Observations

Time (MDT) Temp. Windchill Dew Point Humidity Pressure Visibility Wind Dir Wind Speed Gust Speed Precip Events Conditions
12:51 AM 44.1 °F 35.4 °F 25.0 °F 47% 30.14 in 7.0 mi NNE 21.9 mph 29.9 mph N/A   Overcast
1:51 AM 41.0 °F 31.9 °F 23.0 °F 49% 30.18 in 10.0 mi NNE 19.6 mph 26.5 mph N/A   Overcast
2:51 AM 41.0 °F 34.3 °F 24.1 °F 51% 30.20 in 10.0 mi NNE 11.5 mph - N/A   Overcast
3:51 AM 41.0 °F 34.7 °F 24.1 °F 51% 30.20 in 10.0 mi NNE 10.4 mph - N/A   Overcast
4:30 AM 39.9 °F 33.4 °F 23.0 °F 51% 30.33 in 10.0 mi NNE 10.4 mph - N/A   Overcast
4:51 AM 37.9 °F 33.5 °F 23.0 °F 55% 30.23 in 10.0 mi NNE 5.8 mph - N/A   Overcast
5:13 AM 37.0 °F 34.5 °F 23.0 °F 57% 30.35 in 10.0 mi North 3.5 mph - N/A   Scattered Clouds
5:51 AM 37.0 °F 28.1 °F 19.9 °F 50% 30.27 in 10.0 mi North 15.0 mph - N/A   Clear
6:51 AM 35.1 °F 28.6 °F 19.9 °F 54% 30.31 in 10.0 mi NNE 8.1 mph - N/A   Clear
7:51 AM 37.0 °F 31.6 °F 19.9 °F 50% 30.35 in 10.0 mi North 6.9 mph - N/A   Clear
8:51 AM 41.0 °F 34.3 °F 21.0 °F 45% 30.38 in 10.0 mi NNE 11.5 mph - N/A   Clear
9:51 AM 43.0 °F 37.2 °F 19.9 °F 40% 30.40 in 10.0 mi NNE 10.4 mph - N/A   Clear
10:51 AM 45.0 °F 40.1 °F 19.9 °F 37% 30.41 in - NNE 9.2 mph - N/A   Clear
11:51 AM 46.0 °F 43.1 °F 19.0 °F 34% 30.39 in 10.0 mi NE 5.8 mph - N/A   Clear
12:51 PM 48.9 °F - 18.0 °F 29% 30.36 in 10.0 mi NE 5.8 mph - N/A   Clear
1:51 PM 50.0 °F - 17.1 °F 27% 30.32 in 10.0 mi North - - N/A   Clear
2:51 PM 50.0 °F - 17.1 °F 27% 30.28 in 10.0 mi Calm Calm - N/A   Clear
3:51 PM 53.1 °F - 16.0 °F 23% 30.25 in 10.0 mi NNE 5.8 mph - N/A   Clear
4:51 PM 54.0 °F - 15.1 °F 22% 30.24 in 10.0 mi Variable 3.5 mph - N/A   Clear
5:51 PM 52.0 °F - 15.1 °F 23% 30.23 in 10.0 mi Calm Calm - N/A   Clear
6:51 PM 52.0 °F - 14.0 °F 22% 30.24 in 10.0 mi SSE 5.8 mph - N/A   Clear
7:51 PM 44.1 °F 41.5 °F 12.9 °F 28% 30.25 in 10.0 mi SSW 4.6 mph - N/A   Clear
8:51 PM 41.0 °F 36.4 °F 12.0 °F 31% 30.27 in 10.0 mi SW 6.9 mph - N/A   Clear
9:51 PM 41.0 °F 38.0 °F 12.9 °F 32% 30.27 in 10.0 mi WSW 4.6 mph - N/A   Clear
10:51 PM 39.9 °F 35.8 °F 12.0 °F 32% 30.26 in 10.0 mi WSW 5.8 mph - N/A   Clear
11:51 PM 37.9 °F 33.5 °F 12.9 °F 36% 30.26 in 10.0 mi WSW 5.8 mph - N/A   Clear